Thieusies - 2° Theodo Trail - 2017

Dénomination   Thieusies - 2° Theodo Trail - 2017   40 kms
  27 kms
  17 kms
Date   18/02/2017  
Adresse  Ecole communale
 Rue de la Motte
 7061 Thieusies
    Voir carte d'accès
Contact

 Benoît François

  

   0496/061.692
Courses  40 kms
 27 kms
 17 kms
 
 
Inscriptions    
Parcours    parcours : 17, 27 et 40 kms  

Un lien pour les traileurs .. : BeTrail

        Palmares de la course :

Course

Catégorie

Vainqueur

40 kms Messieurs LOQUET Thomas SMET John MEERSMAN Marc
40 kms Dames IMKAMP Maroula STOCKMAN Natacha DE JONG-SNIJDERS Trudie
27 kms Messieurs VAN LIERDE Jan SEVENS Quentin DURIN Christophe
27 kms Dames GIBERT Stéphanie VANDER MASSEN Hélène SPILLIAERT Anne
17 kms Messieurs DRUGMAND Fabian DUSSART Pierre FLASSE William
17 kms Dames PAREIN Estelle BONGIOVANNI Virginie BAKRIM Fatima


Fichier EXCEL des résultats

Course : 40 kms
Document PDF de la course
Pla. Pl.Cat Dossard Nom                       Catégorie     Temps     Course   Vitesse Min/Km
_____________________________________________________________________________________________
1 1 1169 LOQUET Thomas Messieurs 02:50:43 40 kms 14.058 4:16
2 2 1181 SMET John Messieurs 02:57:14 40 kms 13.541 4:25
3 3 1172 MEERSMAN Marc Messieurs 03:11:21 40 kms 12.542 4:47
4 4 1165 STILITE Laurent Messieurs 03:14:25 40 kms 12.344 4:51
5 5 1186 FOUSS François Messieurs 03:22:07 40 kms 11.874 5:03
6 6 1183 HARPIGNY Cédric Messieurs 03:23:03 40 kms 11.819 5:04
7 7 1151 BOUCART Jérôme Messieurs 03:28:48 40 kms 11.494 5:13
8 8 1193 LUCAS Romuald Messieurs 03:29:03 40 kms 11.480 5:13
9 9 1170 DEKEISTER Emmanuel Messieurs 03:31:01 40 kms 11.373 5:16
10 10 1167 ZANIER Laurent Messieurs 03:35:53 40 kms 11.117 5:23
11 11 1200 GALLET Benoît Messieurs 03:38:51 40 kms 10.966 5:28
12 12 1174 HUART Daniel Messieurs 03:39:32 40 kms 10.932 5:29
13 13 1203 LIENARD Philippe Messieurs 03:42:33 40 kms 10.784 5:33
14 14 1189 DORCHY Quentin Messieurs 03:47:58 40 kms 10.527 5:41
15 15 1195 DERVAUX Gaëtan Messieurs 03:48:02 40 kms 10.524 5:42
16 16 1171 DESCAMPS Marc Messieurs 03:48:49 40 kms 10.488 5:43
17 17 1205 DIERYCK Pascal Messieurs 03:53:23 40 kms 10.283 5:50
18 18 1209 CHEVALIER Michaël Messieurs 03:53:25 40 kms 10.282 5:50
19 19 1199 BADIN Dirk Messieurs 03:55:26 40 kms 10.193 5:53
20 20 1194 DUHAYON Kris Messieurs 03:55:45 40 kms 10.180 5:53
21 21 1180 KOLENDA Stany Messieurs 03:56:21 40 kms 10.154 5:54
22 22 1208 DELRUE Laurent Messieurs 03:57:27 40 kms 10.107 5:56
23 23 1152 VANTORRE Sébastien Messieurs 03:57:40 40 kms 10.098 5:56
24 24 1178 WATTIEZ Christophe Messieurs 03:58:01 40 kms 10.083 5:57
25 25 1176 BASTIN Simon Messieurs 04:09:44 40 kms 9.610 6:14
26 26 1192 ZORZI Bruno Messieurs 04:09:46 40 kms 9.608 6:14
27 27 1150 TACK Arnaud Messieurs 04:13:30 40 kms 9.467 6:20
28 1 1207 IMKAMP Maroula Dames 04:18:07 40 kms 9.298 6:27 29 28 1156 DE PRIL Jorn Messieurs 04:20:33 40 kms 9.211 6:30 30 29 1201 CAPRON Etienne Messieurs 04:22:50 40 kms 9.131 6:34 31 30 1164 CEUPPENS Johan Messieurs 04:25:13 40 kms 9.049 6:37 32 31 1198 DEMINNE Thierry Messieurs 04:25:54 40 kms 9.025 6:38 33 32 1159 OOSTERLYNCK Jules Messieurs 04:28:36 40 kms 8.935 6:42 34 2 1157 STOCKMAN Natacha Dames 04:28:39 40 kms 8.933 6:42 35 33 1158 HAELTERS Bruno Messieurs 04:31:11 40 kms 8.850 6:46 36 34 1166 HOCQUET Stéphane Messieurs 04:37:18 40 kms 8.654 6:55 37 35 1202 SPELLANZON Michaël Messieurs 04:37:25 40 kms 8.651 6:56 38 36 1188 DECLEVE Benoît Messieurs 04:40:27 40 kms 8.557 7:00 39 37 1161 BALLEZ François Messieurs 04:41:06 40 kms 8.537 7:01 40 3 1206 DE JONG-SNIJDERS Trudie Dames 04:55:25 40 kms 8.124 7:23 41 38 1197 TAVERNIER Luc Messieurs 04:56:11 40 kms 8.103 7:24 42 39 1153 GUERRA DE SOUSA Joao-PauloMessieurs 05:20:05 40 kms 7.498 8:00 43 40 1162 VAN DEN BROECK Maurice Messieurs 05:22:49 40 kms 7.434 8:04
Course : 27 kms
Document PDF de la course
Pla. Pl.Cat Dossard Nom                       Catégorie     Temps     Course   Vitesse Min/Km
_____________________________________________________________________________________________
1 1 973 VAN LIERDE Jan Messieurs 01:53:45 27 kms 14.241 4:12
2 2 905 SEVENS Quentin Messieurs 01:58:20 27 kms 13.690 4:22
3 3 969 DURIN Christophe Messieurs 01:59:40 27 kms 13.537 4:25
4 4 1102 DELBECQ Nathan Messieurs 02:03:52 27 kms 13.078 4:35
5 5 1080 JOBKEN Olivier Messieurs 02:12:52 27 kms 12.192 4:55
6 6 1015 DEPAEPE Patrick Messieurs 02:13:03 27 kms 12.175 4:55
7 7 921 SANCHEZ POSADA Luis Messieurs 02:13:19 27 kms 12.151 4:56
8 8 1163 TRIFIN Jonathan Messieurs 02:13:47 27 kms 12.109 4:57
9 9 1084 CAPOUET Mathieu Messieurs 02:15:39 27 kms 11.942 5:01
10 10 889 ROOSENS Frans Messieurs 02:15:42 27 kms 11.938 5:01
11 11 1039 WASTIELS Kris Messieurs 02:16:02 27 kms 11.908 5:02
12 12 1010 VANNOORENBERGHE Cédric Messieurs 02:16:25 27 kms 11.875 5:03
13 13 931 DEWAEL Yannick Messieurs 02:19:18 27 kms 11.629 5:09
14 14 912 DEJONG Daniel Messieurs 02:19:35 27 kms 11.605 5:10
15 15 1034 DUVIVIER David Messieurs 02:19:38 27 kms 11.601 5:10
16 16 883 FURNARI Roberto Messieurs 02:24:28 27 kms 11.213 5:21
17 17 1187 DELESENNE Nicolas Messieurs 02:25:08 27 kms 11.162 5:22
18 18 1031 QUEVY Lionel Messieurs 02:25:44 27 kms 11.116 5:23
19 19 902 DE CREMER Dirk Messieurs 02:25:50 27 kms 11.108 5:24
20 20 1093 DEBRABANDERE Amaury Messieurs 02:26:06 27 kms 11.088 5:24
21 21 979 EWBANK Patrick Messieurs 02:27:42 27 kms 10.968 5:28
22 22 906 DUBUISSON Francis Messieurs 02:28:24 27 kms 10.916 5:29
23 23 964 CORDIER Nicolas Messieurs 02:28:31 27 kms 10.907 5:30
24 24 1017 LEROY Benjamin Messieurs 02:29:36 27 kms 10.828 5:32
25 25 1177 FRAITURE Thomas Messieurs 02:29:42 27 kms 10.821 5:32
26 1 993 GIBERT Stéphanie Dames 02:29:44 27 kms 10.819 5:32 27 26 1004 BASTIEN Guillaume Messieurs 02:31:00 27 kms 10.728 5:35 28 27 877 DELWARTE Laurent Messieurs 02:31:04 27 kms 10.723 5:35 29 28 1092 SOGALOW Jean-Marc Messieurs 02:32:22 27 kms 10.632 5:38 30 29 1090 LEGRAIN Fabrice Messieurs 02:32:50 27 kms 10.599 5:39 31 30 941 MABILLE Olivier Messieurs 02:34:08 27 kms 10.510 5:42 32 31 1070 GOOSSENS Jacky Messieurs 02:34:11 27 kms 10.506 5:42 33 32 863 HENNEBERT Bertrand Messieurs 02:34:35 27 kms 10.479 5:43 34 33 1064 ADRIANSSENS Serge Messieurs 02:35:14 27 kms 10.435 5:44 35 34 980 DUTRIEUX Michaël Messieurs 02:35:37 27 kms 10.410 5:45 36 35 669 DEREUME Pascal Messieurs 02:35:45 27 kms 10.401 5:46 37 36 911 COLETTE Vincent Messieurs 02:36:00 27 kms 10.384 5:46 38 2 859 VANDER MASSEN Hélène Dames 02:36:07 27 kms 10.376 5:46 39 37 936 BERNIER Olivier Messieurs 02:36:18 27 kms 10.364 5:47 40 38 937 DELPORTE Vincent Messieurs 02:36:21 27 kms 10.361 5:47 41 39 953 TILTE Benoît Messieurs 02:36:33 27 kms 10.348 5:47 42 40 935 COLLIN Pierre Messieurs 02:36:36 27 kms 10.344 5:48 43 41 981 GOUTIÈRE François Messieurs 02:36:38 27 kms 10.342 5:48 44 42 852 GILLET David Messieurs 02:36:48 27 kms 10.331 5:48 45 3 1055 SPILLIAERT Anne Dames 02:37:43 27 kms 10.271 5:50 46 43 1041 MUSIN Renaud Messieurs 02:38:08 27 kms 10.244 5:51 47 44 575 INNOCENTE Gino Messieurs 02:39:45 27 kms 10.140 5:55 48 45 874 HORLIN Gaëtan Messieurs 02:39:47 27 kms 10.138 5:55 49 46 901 PENTE Mathias Messieurs 02:39:51 27 kms 10.134 5:55 50 47 880 SCOUBEAU Olivier Messieurs 02:40:02 27 kms 10.122 5:55 51 48 930 EWBANK Geoffrey Messieurs 02:40:53 27 kms 10.069 5:57 52 49 878 OPSOMER Bruno Messieurs 02:41:22 27 kms 10.039 5:58 53 50 1042 BINET Christian Messieurs 02:41:37 27 kms 10.023 5:59 54 51 1054 GHUISOLAND Alfred Messieurs 02:42:27 27 kms 9.972 6:01 55 52 1027 GEUSE Julien Messieurs 02:42:32 27 kms 9.967 6:01 56 53 927 MATERNE Daniel Messieurs 02:42:35 27 kms 9.964 6:01 57 54 960 BLONDIAUX Maxime Messieurs 02:43:03 27 kms 9.935 6:02 58 55 1154 DUCOBU Denis Messieurs 02:43:47 27 kms 9.891 6:03 59 56 924 DASNOY Sébastien Messieurs 02:43:50 27 kms 9.888 6:04 60 57 982 SALMIN François Messieurs 02:44:05 27 kms 9.873 6:04 61 58 1088 BOULENGIER Jonathan Messieurs 02:44:30 27 kms 9.848 6:05 62 59 868 CATY Timothé Messieurs 02:44:50 27 kms 9.828 6:06 63 60 1049 PIERAERT Michel Messieurs 02:44:56 27 kms 9.822 6:06 64 61 1073 LEROY Vincent Messieurs 02:45:01 27 kms 9.817 6:06 65 62 1072 SORRIAUX Bryan Messieurs 02:45:06 27 kms 9.812 6:06 66 63 1018 LEFEBVRE Fabien Messieurs 02:45:09 27 kms 9.809 6:07 67 64 1008 GENTILE Flavio Messieurs 02:45:24 27 kms 9.794 6:07 68 65 1016 MARCHAND Yves Messieurs 02:45:27 27 kms 9.791 6:07 69 66 940 VANCAENEGEM Charlie Messieurs 02:45:37 27 kms 9.781 6:08 70 67 949 DE VROOME Quentin Messieurs 02:45:47 27 kms 9.771 6:08 71 68 950 DE VROOME Jérémy Messieurs 02:45:50 27 kms 9.768 6:08 72 69 925 HOTTIAUX Cédric Messieurs 02:45:52 27 kms 9.766 6:08 73 70 946 BALAND Johan Messieurs 02:45:58 27 kms 9.760 6:08 74 71 1013 DURET Christophe Messieurs 02:46:01 27 kms 9.758 6:08 75 72 891 SPILTOIR Mathieu Messieurs 02:46:31 27 kms 9.728 6:10 76 73 939 VANCAENEGEM Valentin Messieurs 02:46:35 27 kms 9.724 6:10 77 74 956 DE SAINT MARTIN Alain Messieurs 02:46:57 27 kms 9.703 6:11 78 75 1065 MEES Simon Messieurs 02:47:50 27 kms 9.652 6:12 79 76 1038 HEURION Bertrand Messieurs 02:47:57 27 kms 9.645 6:13 80 4 1036 VOS Karine Dames 02:48:01 27 kms 9.641 6:13 81 5 976 DELIEGE Hélène Dames 02:48:04 27 kms 9.639 6:13 82 77 1019 POTTIEZ Philippe Messieurs 02:48:08 27 kms 9.635 6:13 83 78 1028 AMMENDOLA Antonio Messieurs 02:48:11 27 kms 9.632 6:13 84 79 1066 SEGHIN Vincent Messieurs 02:48:18 27 kms 9.625 6:14 85 80 989 KENDA Damien Messieurs 02:48:31 27 kms 9.613 6:14 86 81 894 DE BAERE John Messieurs 02:48:47 27 kms 9.598 6:15 87 82 1014 VIVIER Geoffrey Messieurs 02:49:03 27 kms 9.582 6:15 88 83 975 PISCART Quentin Messieurs 02:49:09 27 kms 9.577 6:15 89 6 944 DEMARET Mélanie Dames 02:49:21 27 kms 9.565 6:16 90 84 945 LAMBERT Frédéric Messieurs 02:49:29 27 kms 9.558 6:16 91 85 994 VANDEPUTTE Cédric Messieurs 02:49:32 27 kms 9.555 6:16 92 86 915 CARELS Didier Messieurs 02:49:53 27 kms 9.535 6:17 93 87 1024 GONZE Michel Messieurs 02:50:28 27 kms 9.503 6:18 94 88 958 FRANCOIS Bruno Messieurs 02:50:39 27 kms 9.493 6:19 95 89 1082 VERSET Renaud Messieurs 02:51:09 27 kms 9.465 6:20 96 90 934 MANDERLIER Maxime Messieurs 02:51:37 27 kms 9.439 6:21 97 91 1052 BOUZID Samir Messieurs 02:52:59 27 kms 9.365 6:24 98 92 1044 BLONDIAU Marc Messieurs 02:53:01 27 kms 9.363 6:24 99 7 1074 RUTAR Sophie Dames 02:53:04 27 kms 9.360 6:24 100 8 1103 MATTHYS Sophie Dames 02:54:13 27 kms 9.298 6:27 101 93 938 DESCHUYTENEER Stéphane Messieurs 02:54:19 27 kms 9.293 6:27 102 9 955 COUMPOURAS Géraldine Dames 02:54:41 27 kms 9.273 6:28 103 94 1095 BAUDOUX Stéphane Messieurs 02:54:53 27 kms 9.263 6:28 104 95 988 DEWEZ Geoffroy Messieurs 02:55:21 27 kms 9.238 6:29 105 96 899 VANDERSTRICHELEN Laurent Messieurs 02:56:01 27 kms 9.203 6:31 106 97 1060 GILLAIN Michel Messieurs 02:56:31 27 kms 9.177 6:32 107 98 903 DEGROOTE Nicolas Messieurs 02:56:41 27 kms 9.168 6:32 108 99 861 WAUTHIER David Messieurs 02:57:26 27 kms 9.130 6:34 109 100 1045 NEMEGHAIRE Laurent Messieurs 02:57:30 27 kms 9.126 6:34 110 101 1058 PIERON Vincent Messieurs 02:57:33 27 kms 9.124 6:34 111 10 1046 MARKI Isabelle Dames 02:57:36 27 kms 9.121 6:34 112 11 1067 GOOSSENS Annick Dames 02:58:05 27 kms 9.096 6:35 113 12 985 NOEL Louise Dames 02:58:08 27 kms 9.094 6:35 114 13 1098 COUSSEMENT Valérie Dames 02:58:19 27 kms 9.084 6:36 115 102 1099 ARS Benoît Messieurs 02:58:20 27 kms 9.084 6:36 116 103 873 THIENPONT Ivan Messieurs 02:58:24 27 kms 9.080 6:36 117 104 966 MACTELLINCK André Messieurs 02:59:37 27 kms 9.019 6:39 118 105 893 HERREMANS Sven Messieurs 03:01:39 27 kms 8.918 6:43 119 14 1063 BAUSIER Nathalie Dames 03:02:07 27 kms 8.895 6:44 120 106 1003 CHARLES Stéphane Messieurs 03:02:10 27 kms 8.892 6:44 121 107 898 MOREAU Christophe Messieurs 03:02:14 27 kms 8.889 6:44 122 15 1069 FOUCART Pascaline Dames 03:02:49 27 kms 8.861 6:46 123 108 992 NIEUWLAND Nicolas Messieurs 03:02:51 27 kms 8.859 6:46 124 109 1051 CHAOUACHI Samy Messieurs 03:03:14 27 kms 8.841 6:47 125 110 916 BOGAERT Thomas Messieurs 03:03:39 27 kms 8.821 6:48 126 111 507 WALEMACQ Thierry Messieurs 03:04:20 27 kms 8.788 6:49 127 16 1002 CENZANO Vanessa Dames 03:04:46 27 kms 8.767 6:50 128 112 1001 HOUSSIERE Antoine Messieurs 03:04:53 27 kms 8.762 6:50 129 113 919 PLATTEAU Olivier Messieurs 03:04:58 27 kms 8.758 6:51 130 17 990 CERISIER Delphine Dames 03:05:03 27 kms 8.754 6:51 131 114 853 HENAUT Bruno Messieurs 03:05:47 27 kms 8.719 6:52 132 115 1062 CULOT Stéphane Messieurs 03:05:50 27 kms 8.717 6:52 133 116 876 SCHYNS Thomas Messieurs 03:05:55 27 kms 8.713 6:53 134 117 1000 LECHIEN Gilles Messieurs 03:06:23 27 kms 8.691 6:54 135 118 920 MROWIEC Stéphane Messieurs 03:06:33 27 kms 8.683 6:54 136 18 948 RUELLE Léna Dames 03:06:38 27 kms 8.680 6:54 137 119 1048 GOFFINET Jean Messieurs 03:07:49 27 kms 8.625 6:57 138 19 959 DUGAUQUIER Catherine Dames 03:08:19 27 kms 8.602 6:58 139 20 900 LAURENT Christelle Dames 03:08:24 27 kms 8.598 6:58 140 21 913 GOMMERS Fabienne Dames 03:08:27 27 kms 8.596 6:58 141 22 918 PETTERSSON Inge Dames 03:08:29 27 kms 8.594 6:58 142 120 933 MANDERLIER Marc Messieurs 03:08:32 27 kms 8.592 6:58 143 23 1035 PIERROT Sabine Dames 03:09:49 27 kms 8.534 7:01 144 121 872 DELERS Pascal Messieurs 03:09:52 27 kms 8.532 7:01 145 24 1071 MAGNIER Sophie Dames 03:10:33 27 kms 8.501 7:03 146 122 1083 CUBEDDU Roberto Messieurs 03:10:55 27 kms 8.485 7:04 147 25 1025 HENAULT Myriam Dames 03:11:08 27 kms 8.475 7:04 148 123 986 BRIGANTE André Messieurs 03:11:46 27 kms 8.447 7:06 149 124 997 GAUPIN Julien Messieurs 03:12:11 27 kms 8.429 7:07 150 26 772 CAMBRAI Christine Dames 03:12:19 27 kms 8.423 7:07 151 125 970 DELEU Patrick Messieurs 03:12:43 27 kms 8.406 7:08 152 126 1079 HANNET Christophe Messieurs 03:13:47 27 kms 8.359 7:10 153 27 1078 RENOTTE Gaëlle Dames 03:13:56 27 kms 8.353 7:10 154 127 971 SCREVE Laurent Messieurs 03:14:07 27 kms 8.345 7:11 155 28 962 BOGAERT Christel Dames 03:14:18 27 kms 8.337 7:11 156 29 588 CAZIER Isabelle Dames 03:14:36 27 kms 8.324 7:12 157 128 968 DUSSART Patrick Messieurs 03:14:39 27 kms 8.322 7:12 158 129 1023 SAUDOYER Cédric Messieurs 03:14:42 27 kms 8.320 7:12 159 130 1022 DECABOOTER Mathieu Messieurs 03:14:57 27 kms 8.309 7:13 160 131 972 WARGNIES Cédric Messieurs 03:17:20 27 kms 8.209 7:18 161 132 1086 GORTS-HORLAY Pierre-EmmanuMessieurs 03:18:12 27 kms 8.173 7:20 162 30 1020 EGGERMONT Nathalie Dames 03:18:34 27 kms 8.158 7:21 163 133 854 FLAMENG Laurent Messieurs 03:18:46 27 kms 8.150 7:21 164 134 1087 LE GOURRIEREC Loïc Messieurs 03:18:51 27 kms 8.146 7:21 165 135 1075 VINCART Benoît Messieurs 03:18:56 27 kms 8.143 7:22 166 31 965 DELACENSERIE Carine Dames 03:19:44 27 kms 8.110 7:23 167 32 897 BERNARD Katy Dames 03:19:50 27 kms 8.106 7:24 168 33 896 THOMAS Véronique Dames 03:19:53 27 kms 8.104 7:24 169 136 963 MARTINEZ Laurent Messieurs 03:19:57 27 kms 8.102 7:24 170 34 885 PROCOPIO Concetta Dames 03:24:00 27 kms 7.941 7:33 171 137 1076 STEVENS Gilles Messieurs 03:24:03 27 kms 7.939 7:33 172 138 862 DELBOUILLE Thierry Messieurs 03:24:06 27 kms 7.937 7:33 173 139 1026 DEJONGHE Cédric Messieurs 03:24:15 27 kms 7.931 7:33 174 35 890 JACQUES Sophie Dames 03:24:27 27 kms 7.923 7:34 175 36 904 LIBERT Sabine Dames 03:27:21 27 kms 7.812 7:40 176 140 974 PLESKA Olivier Messieurs 03:27:25 27 kms 7.810 7:40 177 141 1040 HOYOIS Bernard Messieurs 03:27:30 27 kms 7.807 7:41 178 142 857 LUCAS Grégory Messieurs 03:33:29 27 kms 7.588 7:54 179 143 1029 DENNETIÈRES Cyril Messieurs 03:33:38 27 kms 7.583 7:54 180 144 1196 BRODEN Philippe Messieurs 03:41:57 27 kms 7.298 8:13 181 145 886 DEPOTTE Marc-Henri Messieurs 03:45:19 27 kms 7.189 8:20 182 146 888 STOUTEN Tibo Messieurs 03:51:05 27 kms 7.010 8:33 183 37 887 VANDERVEKEN Véronique Dames 03:51:11 27 kms 7.007 8:33
Course : 17 kms
Document PDF de la course
Pla. Pl.Cat Dossard Nom                       Catégorie     Temps     Course   Vitesse Min/Km
_____________________________________________________________________________________________
1 1 828 DRUGMAND Fabian Messieurs 01:22:28 17 kms 12.368 4:51
2 2 687 DUSSART Pierre Messieurs 01:24:21 17 kms 12.092 4:57
3 3 711 FLASSE William Messieurs 01:24:55 17 kms 12.011 4:59
4 4 653 MICHEL Christopher Messieurs 01:26:47 17 kms 11.753 5:06
5 5 700 DESSILLY Nicolas Messieurs 01:27:46 17 kms 11.621 5:09
6 6 835 PIRONNET Arthur Messieurs 01:28:10 17 kms 11.568 5:11
7 7 803 FRECOURT Xavier Messieurs 01:28:24 17 kms 11.538 5:12
8 8 810 TAVEIRNE Koen Messieurs 01:28:28 17 kms 11.529 5:12
9 9 649 DESCAMPS François Messieurs 01:28:32 17 kms 11.521 5:12
10 10 648 RESMINI Federico Messieurs 01:28:41 17 kms 11.501 5:13
11 11 553 MOL Serge Messieurs 01:29:03 17 kms 11.454 5:14
12 12 636 PECCENINI Stéphane Messieurs 01:29:39 17 kms 11.377 5:16
13 13 589 DE JONG Jonathan Messieurs 01:29:42 17 kms 11.371 5:16
14 14 811 LALOYAUX Dorian Messieurs 01:31:30 17 kms 11.147 5:22
15 15 640 LEFEBVRE Anthony Messieurs 01:32:56 17 kms 10.975 5:28
16 1 548 PAREIN Estelle Dames 01:33:00 17 kms 10.967 5:28 17 16 682 CAMBERLIN Laurent Messieurs 01:33:03 17 kms 10.961 5:28 18 17 763 STILITE Yoann Messieurs 01:33:24 17 kms 10.920 5:29 19 18 732 DUPONT Olivier Messieurs 01:33:44 17 kms 10.881 5:30 20 19 694 POULET Yannick Messieurs 01:33:51 17 kms 10.868 5:31 21 20 776 DELYS Frank Messieurs 01:34:40 17 kms 10.774 5:34 22 21 594 CAPON Mathieu Messieurs 01:34:57 17 kms 10.742 5:35 23 22 524 BOTTE Vincent Messieurs 01:35:25 17 kms 10.689 5:36 24 23 543 DUPONT Nicolas Messieurs 01:35:29 17 kms 10.682 5:37 25 2 765 BONGIOVANNI Virginie Dames 01:36:12 17 kms 10.602 5:39 26 24 652 DEHUT Sébastien Messieurs 01:36:17 17 kms 10.593 5:39 27 25 601 ARNOULD Anton Messieurs 01:37:02 17 kms 10.511 5:42 28 26 650 DESMYTER Christophe Messieurs 01:37:32 17 kms 10.457 5:44 29 27 813 LERICHE Mathieu Messieurs 01:37:34 17 kms 10.454 5:44 30 28 720 PEGORARO Romain Messieurs 01:37:37 17 kms 10.449 5:44 31 29 707 ANNEESSENS Joachim Messieurs 01:37:42 17 kms 10.440 5:44 32 30 712 GOUTIÈRE Ben Messieurs 01:37:52 17 kms 10.422 5:45 33 31 680 BOSMANS Nicolas Messieurs 01:38:15 17 kms 10.381 5:46 34 32 761 LOMBARD Philippe Messieurs 01:38:21 17 kms 10.371 5:47 35 33 799 NIZET Laurent Messieurs 01:38:24 17 kms 10.365 5:47 36 3 717 BAKRIM Fatima Dames 01:38:34 17 kms 10.348 5:47 37 34 718 SPELMANS Christophe Messieurs 01:38:39 17 kms 10.339 5:48 38 35 613 FIERRO Nicolas Messieurs 01:39:03 17 kms 10.297 5:49 39 36 605 SCHUDDINCK Christopher Messieurs 01:39:07 17 kms 10.290 5:49 40 37 592 LEPOUTRE Vincent Messieurs 01:39:12 17 kms 10.282 5:50 41 38 545 BUISSERET Xavier Messieurs 01:39:29 17 kms 10.252 5:51 42 39 733 RENIER Lenny Messieurs 01:39:59 17 kms 10.201 5:52 43 40 568 THYS Johan Messieurs 01:40:14 17 kms 10.176 5:53 44 41 659 DE COCK Loïc Messieurs 01:40:23 17 kms 10.161 5:54 45 42 917 LOUVRIER Vincent Messieurs 01:40:28 17 kms 10.152 5:54 46 43 792 DE MESSEMAEKER Didier Messieurs 01:40:48 17 kms 10.119 5:55 47 44 646 DEPRINCE Vincent Messieurs 01:41:00 17 kms 10.099 5:56 48 45 830 WILLOCQ Jean-Luc Messieurs 01:41:04 17 kms 10.092 5:56 49 4 834 BRUSSELMANS Dorothée Dames 01:41:19 17 kms 10.067 5:57 50 46 709 DEWATTINNE Thibaut Messieurs 01:41:25 17 kms 10.057 5:57 51 47 710 BOUGARD Guillaume Messieurs 01:41:28 17 kms 10.052 5:58 52 48 754 GHUISOLAND Julien Messieurs 01:41:31 17 kms 10.047 5:58 53 49 634 BACCAUW Xavier Messieurs 01:41:38 17 kms 10.036 5:58 54 5 822 PIERRET Fanny Dames 01:41:46 17 kms 10.022 5:59 55 50 558 RENARD Didier Messieurs 01:41:53 17 kms 10.011 5:59 56 51 536 FLORANGE Christopher Messieurs 01:42:15 17 kms 9.975 6:00 57 52 702 PHILIPPART Damien Messieurs 01:42:24 17 kms 9.960 6:01 58 53 701 PHILIPPART David Messieurs 01:42:31 17 kms 9.949 6:01 59 54 816 MISSANTE Stéphane Messieurs 01:42:41 17 kms 9.933 6:02 60 55 744 JONVILLE Armand Messieurs 01:43:11 17 kms 9.885 6:04 61 56 637 FEKETE Clément Messieurs 01:43:34 17 kms 9.848 6:05 62 57 684 YAVUZ Kubilay Messieurs 01:43:36 17 kms 9.845 6:05 63 58 806 NESI Jean-Pol Messieurs 01:43:41 17 kms 9.837 6:05 64 59 596 DE CREMER Kris Messieurs 01:43:43 17 kms 9.834 6:06 65 60 875 FRANCHIMONT Alex Messieurs 01:43:45 17 kms 9.831 6:06 66 61 666 MARECHAL Julien Messieurs 01:43:50 17 kms 9.823 6:06 67 62 667 DEBRABANDERE François Messieurs 01:43:52 17 kms 9.820 6:06 68 63 804 MALVAES Stéphane Messieurs 01:43:54 17 kms 9.817 6:06 69 64 572 KIESECOMS Pascal Messieurs 01:44:16 17 kms 9.782 6:08 70 65 778 DUPONT Willy Messieurs 01:44:25 17 kms 9.768 6:08 71 66 818 BERDOUX Jacques Messieurs 01:44:35 17 kms 9.752 6:09 72 6 514 VANDENBULCKE Marie Dames 01:44:46 17 kms 9.735 6:09 73 67 632 CLAUS Cédric Messieurs 01:44:58 17 kms 9.717 6:10 74 68 578 VERMEERSCH Olivier Messieurs 01:45:16 17 kms 9.689 6:11 75 69 556 DE LEYE Stefaan Messieurs 01:45:22 17 kms 9.680 6:11 76 70 677 CLAREBOUT Frédéric Messieurs 01:45:26 17 kms 9.674 6:12 77 71 511 VAN BEGIN David Messieurs 01:45:43 17 kms 9.648 6:13 78 72 737 GOETHALS Maxence Messieurs 01:45:46 17 kms 9.643 6:13 79 73 641 MANGIONE Nicolas Messieurs 01:46:09 17 kms 9.609 6:14 80 74 531 TSOLAKIS Christophe Messieurs 01:46:29 17 kms 9.578 6:15 81 75 784 BAUDELET Michaël Messieurs 01:46:32 17 kms 9.574 6:16 82 76 571 VAN ACHTE Christophe Messieurs 01:46:37 17 kms 9.566 6:16 83 77 703 BRAU Michaël Messieurs 01:46:43 17 kms 9.558 6:16 84 7 814 DELHALLE Pauline Dames 01:46:48 17 kms 9.550 6:16 85 78 774 GILLET Romuald Messieurs 01:47:01 17 kms 9.531 6:17 86 79 738 TOURNEUR Axel Messieurs 01:47:07 17 kms 9.522 6:18 87 80 628 DERIDDER Rodney Messieurs 01:47:29 17 kms 9.489 6:19 88 81 819 GOART Arnaud Messieurs 01:47:39 17 kms 9.475 6:19 89 82 675 URBAIN Jérôme Messieurs 01:47:44 17 kms 9.467 6:20 90 83 509 DELPLACE Hervé Messieurs 01:47:58 17 kms 9.447 6:21 91 84 633 BELGRAND Florent Messieurs 01:48:13 17 kms 9.425 6:21 92 8 626 DELFAIRIÈRE Coline Dames 01:48:16 17 kms 9.421 6:22 93 85 759 BLOMME Bram Messieurs 01:48:20 17 kms 9.415 6:22 94 86 597 HABRAN Olivier Messieurs 01:48:33 17 kms 9.396 6:23 95 9 812 WERION Cécile Dames 01:48:41 17 kms 9.385 6:23 96 87 808 SCHOONHEYT Nicolas Messieurs 01:49:23 17 kms 9.325 6:26 97 88 827 BUFFE Geoffroy Messieurs 01:49:31 17 kms 9.313 6:26 98 89 773 RUSTIN Jean-Jacques Messieurs 01:49:33 17 kms 9.310 6:26 99 10 798 MEUNIER Maryline Dames 01:49:37 17 kms 9.305 6:26 100 90 655 WALLON Benjamin Messieurs 01:49:58 17 kms 9.275 6:28 101 11 1081 DEMEULENAERE Sophie Dames 01:50:35 17 kms 9.223 6:30 102 91 623 DE HENAU Fabian Messieurs 01:50:41 17 kms 9.215 6:30 103 92 739 BUHL Mathieu Messieurs 01:51:01 17 kms 9.187 6:31 104 93 721 LENOIR Olivier Messieurs 01:51:33 17 kms 9.143 6:33 105 94 780 LEMBRECHTS Roeland Messieurs 01:51:54 17 kms 9.115 6:34 106 95 779 DE GEETER Kjell Messieurs 01:51:56 17 kms 9.112 6:35 107 12 604 BOITEAUX Elodie Dames 01:52:06 17 kms 9.099 6:35 108 96 796 VIEIRA RAMOS Alexandre Messieurs 01:52:13 17 kms 9.089 6:36 109 97 647 MAIRIAUX Steve Messieurs 01:52:33 17 kms 9.062 6:37 110 13 726 CARLOT Leslie Dames 01:52:35 17 kms 9.059 6:37 111 14 794 KOOB Marie-Cécile Dames 01:52:39 17 kms 9.054 6:37 112 98 631 ADANT Julien Messieurs 01:52:41 17 kms 9.051 6:37 113 15 826 DE BAERE Christel Dames 01:52:44 17 kms 9.047 6:37 114 16 664 URBAIN Ginette Dames 01:53:04 17 kms 9.021 6:39 115 17 821 PIERART Myriam Dames 01:53:10 17 kms 9.013 6:39 116 18 526 LESSENS Sabrina Dames 01:53:53 17 kms 8.956 6:41 117 99 728 STENIER Jean-Christophe Messieurs 01:53:57 17 kms 8.951 6:42 118 100 671 DI BARTOLOMEO Roberto Messieurs 01:54:01 17 kms 8.946 6:42 119 101 762 DI GIUSEPPE Angelo Messieurs 01:54:03 17 kms 8.943 6:42 120 102 674 HUWAERT Yves Messieurs 01:54:05 17 kms 8.940 6:42 121 103 791 MORLIGHEM Greg Messieurs 01:54:08 17 kms 8.936 6:42 122 104 542 LAURAS Thomas Messieurs 01:54:23 17 kms 8.917 6:43 123 105 502 HUARD Maxime Messieurs 01:54:26 17 kms 8.913 6:43 124 19 630 DECAIGNY Anita Dames 01:54:33 17 kms 8.904 6:44 125 106 629 ROOSENS Benoît Messieurs 01:54:51 17 kms 8.881 6:45 126 20 740 HOCHVART Noémie Dames 01:54:54 17 kms 8.877 6:45 127 107 516 AUDOOR Alain Messieurs 01:55:00 17 kms 8.869 6:45 128 108 766 GLORIEUX Gert Messieurs 01:55:10 17 kms 8.856 6:46 129 109 615 GALAND Denis Messieurs 01:55:23 17 kms 8.840 6:47 130 110 833 BARBIEUX Jean-Luc Messieurs 01:55:40 17 kms 8.818 6:48 131 21 621 WINDAL Magali Dames 01:55:43 17 kms 8.814 6:48 132 111 767 DAME Jean-Marie Messieurs 01:55:46 17 kms 8.810 6:48 133 22 523 CABY Vicky Dames 01:56:02 17 kms 8.790 6:49 134 112 510 HABRAN Pierre-Arnaud Messieurs 01:56:04 17 kms 8.788 6:49 135 113 562 PENSEZ Paul Messieurs 01:56:06 17 kms 8.785 6:49 136 23 714 DREESSEN Joëlle Dames 01:56:10 17 kms 8.780 6:50 137 24 603 THOMAS Geneviève Dames 01:56:15 17 kms 8.774 6:50 138 25 753 MARNEFFE Catherine Dames 01:56:17 17 kms 8.771 6:50 139 114 689 DENIMAL Benoît Messieurs 01:56:20 17 kms 8.767 6:50 140 115 752 BAUDELET Nicolas Messieurs 01:56:25 17 kms 8.761 6:50 141 116 723 COUSTRY Mathieu Messieurs 01:56:28 17 kms 8.757 6:51 142 26 616 DESMYTER Laurence Dames 01:56:55 17 kms 8.724 6:52 143 117 622 MATTENS Frédéric Messieurs 01:56:56 17 kms 8.722 6:52 144 27 638 HOCQUET Valérie Dames 01:57:05 17 kms 8.711 6:53 145 118 546 BASIBEI Dimitri Messieurs 01:57:36 17 kms 8.673 6:55 146 28 785 LECOUVET Agnès Dames 01:57:48 17 kms 8.658 6:55 147 119 751 LEFEBVRE Paulin Messieurs 01:58:14 17 kms 8.627 6:57 148 120 743 BOISDENGHIEN Thomas Messieurs 01:58:19 17 kms 8.620 6:57 149 29 829 ROUSSEAU Laurence Dames 01:58:23 17 kms 8.616 6:57 150 121 644 VALOIS Allan Messieurs 01:59:04 17 kms 8.566 7:00 151 122 654 CARTON Tom Messieurs 01:59:08 17 kms 8.561 7:00 152 123 793 BILLOT Pierre Messieurs 01:59:42 17 kms 8.521 7:02 153 30 512 MARTINAGE Karen Dames 01:59:45 17 kms 8.517 7:02 154 31 831 DE COSTER Anna Dames 01:59:47 17 kms 8.515 7:02 155 124 788 FABRIS Jonathan Messieurs 01:59:49 17 kms 8.513 7:02 156 125 557 DEGANSEMAN Michaël Messieurs 02:00:05 17 kms 8.494 7:03 157 126 569 DELPORTE Jacques Messieurs 02:00:09 17 kms 8.489 7:04 158 32 642 COOLMAN Geneviève Dames 02:00:35 17 kms 8.458 7:05 159 33 570 SAUVAGE Valérie Dames 02:00:45 17 kms 8.447 7:06 160 127 750 INFANTE Nazario Messieurs 02:00:57 17 kms 8.433 7:06 161 34 573 PARMENTIER Fanny Dames 02:01:04 17 kms 8.425 7:07 162 128 576 PETIT Thierry Messieurs 02:01:06 17 kms 8.422 7:07 163 129 824 VANDEN ABEELE Patrick Messieurs 02:01:10 17 kms 8.418 7:07 164 35 768 BECHET Cécile Dames 02:01:17 17 kms 8.410 7:08 165 130 727 BRIEUC Bernard Messieurs 02:01:26 17 kms 8.399 7:08 166 36 593 MEUNIER Laurence Dames 02:01:29 17 kms 8.396 7:08 167 131 590 SAMAIN Pascal Messieurs 02:01:31 17 kms 8.393 7:08 168 132 704 LEPAPE Damien Messieurs 02:01:34 17 kms 8.390 7:09 169 133 781 PIERRET Stéphane Messieurs 02:01:38 17 kms 8.385 7:09 170 134 731 MAETENS Yves Messieurs 02:01:40 17 kms 8.383 7:09 171 135 769 BOQUET Frédéric Messieurs 02:01:58 17 kms 8.362 7:10 172 37 922 LEBEAU Marianne Dames 02:02:01 17 kms 8.359 7:10 173 38 611 MURA Nadia Dames 02:02:13 17 kms 8.345 7:11 174 39 708 LEVEQUE Sophie Dames 02:02:18 17 kms 8.340 7:11 175 136 1100 DETOURNAY Jean-Bernard Messieurs 02:03:03 17 kms 8.289 7:14 176 40 724 NOEL France Dames 02:03:20 17 kms 8.270 7:15 177 137 787 DE NARDI Nicolas Messieurs 02:03:32 17 kms 8.256 7:16 178 138 513 REMACLE Pierre Messieurs 02:03:35 17 kms 8.253 7:16 179 139 544 DUCROQUET Bryan Messieurs 02:03:39 17 kms 8.249 7:16 180 41 598 SEVENS Isabelle Dames 02:04:25 17 kms 8.198 7:19 181 42 504 MORTEHAN Aude Dames 02:04:36 17 kms 8.186 7:19 182 140 790 WATTIN Mickael Messieurs 02:04:57 17 kms 8.163 7:21 183 141 690 BAUDAUX Alain Messieurs 02:05:01 17 kms 8.158 7:21 184 142 683 GILLES Jean-Pierre Messieurs 02:05:04 17 kms 8.155 7:21 185 143 564 PAULET Gaëtan Messieurs 02:05:46 17 kms 8.110 7:23 186 43 651 COUVREUR Marie Dames 02:05:51 17 kms 8.104 7:24 187 144 679 BONFIGLIO Calogero Messieurs 02:05:54 17 kms 8.101 7:24 188 44 586 LECLERCQ Florence Dames 02:06:01 17 kms 8.094 7:24 189 45 530 HONARE Mélanie Dames 02:06:06 17 kms 8.088 7:25 190 46 582 HENNAUT Frederique Dames 02:06:11 17 kms 8.083 7:25 191 47 520 GALLEZ Laurence Dames 02:06:15 17 kms 8.079 7:25 192 48 832 LESOILE Stéphanie Dames 02:06:18 17 kms 8.076 7:25 193 49 574 LEGRAND Sarah Dames 02:06:49 17 kms 8.043 7:27 194 50 742 MALARD Sandra Dames 02:06:54 17 kms 8.037 7:27 195 51 722 VANDERLIN Sabine Dames 02:07:03 17 kms 8.028 7:28 196 145 506 DI NICOLANTONIO Rodrigo Messieurs 02:07:31 17 kms 7.998 7:30 197 146 725 BURRION Jean-Sébastien Messieurs 02:08:02 17 kms 7.966 7:31 198 52 656 ANDRÉ Nathalie Dames 02:08:25 17 kms 7.942 7:33 199 53 609 DECAIGNY Françoise Dames 02:08:34 17 kms 7.933 7:33 200 54 527 LEFEVRE Cécile Dames 02:08:38 17 kms 7.929 7:34 201 147 807 SCHOONHEYT Claude Messieurs 02:08:42 17 kms 7.925 7:34 202 55 591 PIERRARD Marie-Aude Dames 02:08:55 17 kms 7.912 7:35 203 148 595 VANDERVAEREN Jonathan Messieurs 02:08:58 17 kms 7.909 7:35 204 56 777 CHARLES Vanessa Dames 02:09:25 17 kms 7.881 7:36 205 149 705 WARZÉE Stéphane Messieurs 02:09:59 17 kms 7.847 7:38 206 150 706 WARZEE Thomas Messieurs 02:10:01 17 kms 7.845 7:38 207 57 643 BRUNCLAIR Marie Dames 02:10:16 17 kms 7.830 7:39 208 151 639 LEFEBVRE Mickael Messieurs 02:10:29 17 kms 7.817 7:40 209 152 619 LECLERCQ Eddy Messieurs 02:10:31 17 kms 7.815 7:40 210 58 618 LECLERCQ Sibylle Dames 02:10:33 17 kms 7.813 7:40 211 153 678 DEVLEESHOUWER Jérémie Messieurs 02:10:37 17 kms 7.809 7:41 212 59 617 PLATEAU Véronique Dames 02:10:40 17 kms 7.806 7:41 213 154 719 PEGORARO Flavio Messieurs 02:10:48 17 kms 7.798 7:41 214 155 537 DUBOIS Marc Messieurs 02:11:55 17 kms 7.732 7:45 215 156 771 DEMACQ Jean-Louis Messieurs 02:12:27 17 kms 7.701 7:47 216 60 805 LECOUTURIER Evelyne Dames 02:12:33 17 kms 7.695 7:47 217 157 809 VILERS Julien Messieurs 02:12:40 17 kms 7.688 7:48 218 158 608 GEVENOIS Frank Messieurs 02:12:53 17 kms 7.675 7:49 219 159 567 LALOT Clément Messieurs 02:13:11 17 kms 7.658 7:50 220 61 729 POIVRE Stéphanie Dames 02:13:13 17 kms 7.656 7:50 221 62 748 BERTINCHAMPS Céline Dames 02:13:15 17 kms 7.654 7:50 222 160 657 TESSE Robert Messieurs 02:13:18 17 kms 7.651 7:50 223 63 563 COTTON Caroline Dames 02:13:25 17 kms 7.645 7:50 224 64 581 WAUTELET Aurélie Dames 02:13:28 17 kms 7.642 7:51 225 65 645 RENARD Ann-Catherine Dames 02:13:30 17 kms 7.640 7:51 226 66 820 BOQUET Hélène Dames 02:13:33 17 kms 7.637 7:51 227 161 734 HENNEKENS Grégory Messieurs 02:13:36 17 kms 7.634 7:51 228 67 698 GAMME Doriane Dames 02:13:38 17 kms 7.632 7:51 229 162 692 CLEMENT Benoît Messieurs 02:13:44 17 kms 7.627 7:52 230 163 508 THILL Didier Messieurs 02:13:46 17 kms 7.625 7:52 231 68 577 MEIRHAEGHE Ann Dames 02:13:48 17 kms 7.623 7:52 232 69 741 MALARD Mélanie Dames 02:15:09 17 kms 7.547 7:57 233 164 823 RODRIGUEZ José Messieurs 02:15:11 17 kms 7.545 7:57 234 165 607 RYCKEBOSCH Ludwig Messieurs 02:17:11 17 kms 7.435 8:04 235 70 602 LEMAIRE Perrine Dames 02:17:17 17 kms 7.429 8:04 236 71 663 GILLOT Christel Dames 02:17:29 17 kms 7.419 8:05 237 72 665 BEQUET Yannick Dames 02:17:31 17 kms 7.417 8:05 238 166 797 COUVREUR Christophe Messieurs 02:18:49 17 kms 7.347 8:09 239 167 565 ANDRE François Messieurs 02:19:07 17 kms 7.331 8:11 240 168 540 LUCAS Alexis Messieurs 02:19:12 17 kms 7.327 8:11 241 169 584 MELCHIOR Nicolas Messieurs 02:19:56 17 kms 7.289 8:13 242 73 658 BLONDIAUX Mélanie Dames 02:21:30 17 kms 7.208 8:19 243 74 583 NAGY Marianne Dames 02:21:33 17 kms 7.205 8:19 244 75 662 DELCOURT Chantal Dames 02:22:27 17 kms 7.160 8:22 245 170 600 ROLLAND Philippe Messieurs 02:27:04 17 kms 6.935 8:39 246 76 635 LESOIL Harmony Dames 02:27:09 17 kms 6.931 8:39 247 171 533 SPECOGNA Albano Messieurs 02:31:35 17 kms 6.728 8:55 248 77 539 DEVEL Véronique Dames 02:32:29 17 kms 6.689 8:58 249 78 538 PISTIDDA Alexandra Dames 02:32:33 17 kms 6.686 8:58 250 79 599 YPERSIEL Jessica Dames 02:36:30 17 kms 6.517 9:12 251 80 672 DELBAUVE Véronique Dames 02:36:33 17 kms 6.515 9:12 252 81 534 BEURMS Céline Dames 02:37:26 17 kms 6.478 9:15 253 172 624 FORNER Christopher Messieurs 02:37:28 17 kms 6.477 9:15 254 82 760 VAN CAAM Rabea Dames 02:44:07 17 kms 6.215 9:39 255 83 555 VANGENENDE Nathalie Dames 02:45:01 17 kms 6.181 9:42 256 84 549 DE BEER Michèle Dames 02:52:50 17 kms 5.901 10:10 257 173 668 DE BEER Roger Messieurs 02:52:52 17 kms 5.900 10:10 258 85 691 GILLES Nancy Dames 02:53:06 17 kms 5.892 10:10 259 174 688 ROLAND Philippe Messieurs 02:53:14 17 kms 5.888 10:11